Regional Weather Roundup
Issued by NWS

Home | Current Version | Previous Version | Graphics & Text | Print | Product List | Glossary On
Versions: 1 2 3 4 5 6 7 8 9 10 11 12 13 14 15 16 17 18 19 20 21 22 23 24 25 26 27 28 29 30 31 32 33 34 35 36 37 38 39 40 41 42 43 44 45 46 47 48 49 50
000
ASUS43 KLSX 290307
RWRMO

WEATHER SUMMARY FOR MISSOURI
NATIONAL WEATHER SERVICE SPRINGFIELD MO
1000 PM CDT SAT MAR 28 2015

NOTE: "FAIR" INDICATES FEW OR NO CLOUDS BELOW 12,000 FEET WITH NO
       SIGNIFICANT WEATHER AND/OR OBSTRUCTIONS TO VISIBILITY.
       CURRENT SKY AND/OR WEATHER CONDITIONS ARE NOT AVAILABLE FOR
       CHILLICOTHE AND FARMINGTON.

MOZ001>031-035>038-043-044-053-054-290400-
...NORTHERN AND WESTERN MISSOURI...

CITY           SKY/WX    TMP DP  RH WIND       PRES   REMARKS
KANSAS CTY INT CLEAR     45  31  58 SE16      30.11S
KANSAS C DTWN  CLEAR     47  30  51 SE6       30.12S
LEE`S SUMMIT   CLEAR     44  30  57 S8        30.13S
ST JOSEPH      CLEAR     43  32  65 SE9       30.11S
CHILLICOTHE      N/A     43  30  60 SE8       30.16S
KIRKSVILLE     CLEAR     36  25  64 SE10      30.19R WCI  28

$$
MOZ066>068-077>081-088>096-101>105-290400-
...SOUTHWEST MISSOURI...

CITY           SKY/WX    TMP DP  RH WIND       PRES   REMARKS
SPRINGFIELD    CLEAR     37  31  78 SE17G26   30.16S WCI  27
JOPLIN         CLEAR     44  33  65 SE10      30.12R

$$
MOZ032>034-039>042-045>050-055>058-069>072-290400-
...CENTRAL MISSOURI...

CITY           SKY/WX    TMP DP  RH WIND       PRES   REMARKS
COLUMBIA       CLEAR     37  28  70 S8        30.20R
JEFFERSON CITY CLEAR     42  30  62 S9        30.23R
ROLLA          CLEAR     36  29  75 S10       30.21R WCI  28
SEDALIA        CLEAR     41  31  67 SE10      30.18S
WHITEMAN AFB   CLEAR     42  32  67 S9        30.16R
WARRENSBURG    CLEAR     41  32  70 SE9       30.17R
OSAGE BEACH    CLEAR     37  28  70 SE8       30.21S

$$
MOZ051-052-059>065-290400-
...EAST CENTRAL MISSOURI...

CITY           SKY/WX    TMP DP  RH WIND       PRES   REMARKS
ST LOUIS INTL  CLEAR     39  19  44 SE9       30.29R
SPIRIT OF STL  CLEAR     39  18  42 SE7       30.27R
ST CHARLES     CLEAR     35  24  64 E9        30.29R WCI  28

$$
MOZ072>076-082>087-097>100-106>115-290400-
...SOUTH CENTRAL AND SOUTHEAST MISSOURI...

CITY           SKY/WX    TMP DP  RH WIND       PRES   REMARKS
CAPE GIRARDEAU FAIR      37  27  67 S6        30.32R
FARMINGTON     CLEAR     36  19  51 S6        30.30R
POPLAR BLUFF   CLEAR     39  32  76 CALM      30.31R
WEST PLAINS    CLOUDY    35  29  78 SE5       30.26R

$$



USA.gov is the U.S. government's official web portal to all federal, state and local government web resources and services.